14.05.2024;04:00;23
14.05.2024;03:00;24
14.05.2024;02:00;29
14.05.2024;01:00;29
13.05.2024;24:00;36
13.05.2024;23:00;26
13.05.2024;22:00;30
13.05.2024;21:00;34
13.05.2024;20:00;24
13.05.2024;19:00;25
13.05.2024;18:00;26
13.05.2024;17:00;21
13.05.2024;16:00;20
13.05.2024;15:00;13
13.05.2024;14:00;9
13.05.2024;13:00;8
13.05.2024;12:00;8
13.05.2024;11:00;10
13.05.2024;10:00;19
13.05.2024;09:00;23
13.05.2024;08:00;23
13.05.2024;07:00;25
13.05.2024;06:00;25
13.05.2024;05:00;22
13.05.2024;04:00;20
13.05.2024;03:00;18
13.05.2024;02:00;17
13.05.2024;01:00;17
12.05.2024;24:00;17
12.05.2024;23:00;16
12.05.2024;22:00;15
12.05.2024;21:00;13
12.05.2024;20:00;11
12.05.2024;19:00;14
12.05.2024;18:00;9
12.05.2024;17:00;8
12.05.2024;16:00;8
12.05.2024;15:00;9
12.05.2024;14:00;9
12.05.2024;13:00;9
12.05.2024;12:00;8
12.05.2024;11:00;11
12.05.2024;10:00;18
12.05.2024;09:00;22
12.05.2024;08:00;25
12.05.2024;07:00;30
12.05.2024;06:00;31
12.05.2024;05:00;29
12.05.2024;04:00;31
12.05.2024;03:00;28
12.05.2024;02:00;27
12.05.2024;01:00;26
11.05.2024;24:00;24
11.05.2024;23:00;23
11.05.2024;22:00;21
11.05.2024;21:00;17
11.05.2024;20:00;13
11.05.2024;19:00;13
11.05.2024;18:00;11
11.05.2024;17:00;11
11.05.2024;16:00;11
11.05.2024;15:00;11
11.05.2024;14:00;12
11.05.2024;13:00;13
11.05.2024;12:00;17
11.05.2024;11:00;23
11.05.2024;10:00;26
11.05.2024;09:00;26
11.05.2024;08:00;31
11.05.2024;07:00;34
11.05.2024;06:00;38
11.05.2024;05:00;39
11.05.2024;04:00;40
11.05.2024;03:00;39
11.05.2024;02:00;39
11.05.2024;01:00;41
10.05.2024;24:00;35
10.05.2024;23:00;31
10.05.2024;22:00;30
10.05.2024;21:00;22
10.05.2024;20:00;19
10.05.2024;19:00;18
10.05.2024;18:00;15
10.05.2024;17:00;16
10.05.2024;16:00;15
10.05.2024;15:00;15
10.05.2024;14:00;15
10.05.2024;13:00;16
10.05.2024;12:00;18
10.05.2024;11:00;26
10.05.2024;10:00;28
10.05.2024;09:00;27
10.05.2024;08:00;31
10.05.2024;07:00;26
10.05.2024;06:00;27
10.05.2024;05:00;29
10.05.2024;04:00;27
10.05.2024;03:00;30
10.05.2024;02:00;26
10.05.2024;01:00;25
09.05.2024;24:00;26
09.05.2024;23:00;21
09.05.2024;22:00;19
09.05.2024;21:00;16
09.05.2024;20:00;12
09.05.2024;19:00;10
09.05.2024;18:00;8
09.05.2024;17:00;7
09.05.2024;16:00;7
09.05.2024;15:00;7
09.05.2024;14:00;8
09.05.2024;13:00;10
09.05.2024;12:00;10
09.05.2024;11:00;12
09.05.2024;10:00;13
09.05.2024;09:00;13
09.05.2024;08:00;14
09.05.2024;07:00;17
09.05.2024;06:00;21
09.05.2024;05:00;23
09.05.2024;04:00;24
09.05.2024;03:00;25
09.05.2024;02:00;26
09.05.2024;01:00;25
